Погода в Могоче

Россия / Забайкальский край     53°44′10″N   119°45′57″E
темп.,
°C
ветер,
м/с
пор.,
м/с
влажн.,
%
обл.,
%
осадки,
мм/ч
давл.,
гПа
погр.,
м
11 мая, вт
вт1100:00+1ссв1193100 0.0 101117
03:00+2с1191100 0.1 101019
06:00+3ссв1189100 0.0 100952
09:00+5с1281100 0.1 1008586
12:00+6ссв2377100 0.1 1008842
15:00+7св2371100 0.2 1007962
18:00+7ссв3567100 0.1 10061018
21:00+4с31078100 0.1 1005561
12 мая, ср
ср1200:00+3ссв31086100 0.4 1005548
03:00+2с41397100 5.9 1003758
06:00+1с41398100 7.8 1003878
09:00+2с41298100 13.7 1003697
12:00+2с41297100 3.4 1003737
15:00+2с41197100 5.9 1004723
18:00+3с3993100 0.5 1005761
21:00+2ссз3893100 0.6 1006464
13 мая, чт
чт1300:000сз259692 0.0 1007174
03:00−2зсз2298100 0.0 100740
06:00−2зсз1297100 0.0 100749
09:00+4с127973 0.0 1005727
12:00+4с1185100 0.2 1005560
15:00+3ююв0195100 2.1 1006392
18:00+5в128668 0.2 1005564
21:00+3св229283 0.3 100648
14 мая, пт
пт1400:000с239855 0.0 100757
03:00−2ссз239991 0.0 100797
06:00+1ссз2792100 0.0 1006491
09:00+3с4779100 0.1 10051012
12:00+5с4876100 0.1 10051092
15:00+6ссз51177100 0.3 10051244
18:00+6ссз51382100 0.2 10051230
21:00+5ссз51476100 0.3 10061201
15 мая, сб
сб1500:00+4ссз5146585 0.0 10071036
03:00+4ссз51259100 0.0 10071020
06:00+4ссз4115869 0.0 1008843
09:00+8ссз58453 0.0 10091149
12:00+12с36404 0.0 10081513
15:00+15ссз35305 0.0 10062151
18:00+15ссз24264 0.0 10052521
21:00+7ююв01565 0.0 100810